Regional Weather Roundup
Issued by NWS Sioux Falls, SD

Home | Current Version | Previous Version | Text Only | Print | Product List | Glossary On
Versions: 1 2 3 4 5 6 7 8 9 10 11 12 13 14 15 16 17 18 19 20 21 22 23 24 25 26 27 28 29 30 31 32 33 34 35 36 37 38 39 40 41 42 43 44 45 46 47 48 49 50
000
ASUS43 KFSD 232310
RWRFSD

WEATHER ROUNDUP FOR SE SOUTH DAKOTA/SW MINNESOTA/NW IOWA
NATIONAL WEATHER SERVICE SIOUX FALLS SD
600 PM CDT TUE SEP 23 2014

NOTE: "FAIR" INDICATES FEW OR NO CLOUDS BELOW 12,000 FEET WITH NO
SIGNIFICANT WEATHER AND OR OBSTRUCTIONS TO VISIBILITY.


SDZ038>040-050-052>070-240000-
SOUTHEAST SOUTH DAKOTA

CITY           SKY/WX    TMP DP  RH WIND       PRES   REMARKS
CHAMBERLAIN    MOSUNNY   64  58  78 SE13G22   29.92S
HURON          CLOUDY    58  56  93 SE10G17   29.97F FOG
MADISON        CLOUDY    57  57 100 SE10      30.03S
MITCHELL       CLOUDY    62  59  90 SE14      29.98S
SIOUX FALLS    CLOUDY    62  56  80 S15G22    30.03F
WINNER         FAIR      71  59  65 SE16      29.89S
YANKTON        CLOUDY    63  57  82 SE12      30.01F
$$

MNZ071-072-080-081-089-090-097-098-240000-
SOUTHWEST MINNESOTA

CITY           SKY/WX    TMP DP  RH WIND       PRES   REMARKS
FAIRMONT       CLOUDY    63  52  67 S10       30.14S
JACKSON        CLOUDY    61  50  67 SE12G20   30.12F
LUVERNE        CLOUDY    63  54  72 S10       30.06F
MARSHALL       CLOUDY    59  52  77 S15G21    30.07S
MONTEVIDEO     DRIZZLE   57  57 100 S8        30.10S
PIPESTONE      CLOUDY    61  55  82 S14G21    30.05F
REDWOOD FALLS  CLOUDY    65  56  72 S10       30.10S
TRACY          CLOUDY    62  55  78 S13       30.08F
WINDOM         CLOUDY    63  52  67 SE14G23   30.11F
WORTHINGTON    CLOUDY    61  50  67 S12G20    30.09F
$$

IAZ001>003-012>014-020>022-031-032-NEZ013-014-SDZ071-240000-
NORTHWEST IOWA

CITY           SKY/WX    TMP DP  RH WIND       PRES   REMARKS
CHEROKEE       CLOUDY    62  57  84 SE7       30.09S
DENISON        PTSUNNY   68  55  64 S13G18    30.08S
ESTHERVILLE    CLOUDY    60  56  86 S12       30.13F
LE MARS        CLOUDY    63  59  88 SE8G15    30.07S
ORANGE CITY    LGT RAIN  63  55  77 SE8       30.07F
SHELDON        CLOUDY    61  54  77 SE10G18   30.07F
SIOUX CITY     CLOUDY    67  58  72 SE8       30.05S
SPENCER        CLOUDY    62  53  72 SE14      30.11F
$$

ABBREVIATIONS USED IN REMARKS
   TC - TEMPERATURE IN CELSIUS
  WCI - WIND CHILL INDEX
   HX - HEAT INDEX
  VSB - VISIBILITY




USA.gov is the U.S. government's official web portal to all federal, state and local government web resources and services.